contact:dominique.lefevre@mio.osupytheas.fr, maurice.libes@osupytheas.fr, didier.mallarino@osupytheas.fr
Project:EMSO http://www.emso-fr.org/EMSO-France
Depth: 2436.0 m
Title:EMSO Ligure Ouest : Data MII capteur MICROCAT
DateTime_Computer,Latitude,Longitude,Temperature,Conductivity,Pressure,DateTime_Instrument
DateTime_Computer,Latitude,Longitude,degC,S m-1,dbar,DateTime_Instrument
2019-11-07T00:01:55Z,42.805,6.029,13.2974,4.59966,2469.876,2019-11-07T02:02:22Z
2019-11-07T00:04:58Z,42.805,6.029,13.2961,4.59960,2469.9,2019-11-07T02:05:25Z
2019-11-07T00:08:01Z,42.805,6.029,13.2981,4.59979,2469.914,2019-11-07T02:08:28Z
2019-11-07T00:11:04Z,42.805,6.029,13.2988,4.59968,2469.914,2019-11-07T02:11:31Z
2019-11-07T00:14:07Z,42.805,6.029,13.2979,4.59968,2469.914,2019-11-07T02:14:35Z
2019-11-07T00:17:11Z,42.805,6.029,13.2975,4.59989,2469.96,2019-11-07T02:17:38Z
2019-11-07T00:20:14Z,42.805,6.029,13.2974,4.59968,2469.89,2019-11-07T02:20:41Z
2019-11-07T00:23:17Z,42.805,6.029,13.2979,4.59978,2469.914,2019-11-07T02:23:45Z
2019-11-07T00:26:21Z,42.805,6.029,13.2974,4.59973,2469.914,2019-11-07T02:26:48Z
2019-11-07T00:29:24Z,42.805,6.029,13.2961,4.59958,2469.914,2019-11-07T02:29:51Z
2019-11-07T00:32:27Z,42.805,6.029,13.2957,4.59958,2469.9,2019-11-07T02:32:54Z
2019-11-07T00:35:30Z,42.805,6.029,13.2955,4.59955,2469.9,2019-11-07T02:35:57Z
2019-11-07T00:38:33Z,42.805,6.029,13.2982,4.59974,2469.876,2019-11-07T02:39:01Z
2019-11-07T00:41:37Z,42.805,6.029,13.2976,4.59993,2469.937,2019-11-07T02:42:04Z
2019-11-07T00:44:40Z,42.805,6.029,13.2993,4.60001,2469.914,2019-11-07T02:45:07Z
2019-11-07T00:47:43Z,42.805,6.029,13.2978,4.59992,2469.9,2019-11-07T02:48:10Z
2019-11-07T00:50:46Z,42.805,6.029,13.2975,4.60007,2469.937,2019-11-07T02:51:13Z
2019-11-07T00:53:49Z,42.805,6.029,13.2970,4.60027,2469.914,2019-11-07T02:54:17Z
2019-11-07T00:56:53Z,42.805,6.029,13.2984,4.59996,2469.876,2019-11-07T02:57:20Z
2019-11-07T00:59:56Z,42.805,6.029,13.2966,4.59966,2469.9,2019-11-07T03:00:23Z
2019-11-07T01:02:59Z,42.805,6.029,13.2955,4.59963,2469.923,2019-11-07T03:03:26Z
2019-11-07T01:06:02Z,42.805,6.029,13.2964,4.59964,2469.9,2019-11-07T03:06:29Z
2019-11-07T01:09:05Z,42.805,6.029,13.2981,4.59987,2469.914,2019-11-07T03:09:33Z
2019-11-07T01:12:09Z,42.805,6.029,13.2979,4.59991,2469.9,2019-11-07T03:12:36Z
2019-11-07T01:15:12Z,42.805,6.029,13.2957,4.59958,2469.9,2019-11-07T03:15:39Z
2019-11-07T01:18:15Z,42.805,6.029,13.2958,4.59961,2469.937,2019-11-07T03:18:42Z
2019-11-07T01:21:18Z,42.805,6.029,13.2952,4.59968,2469.9,2019-11-07T03:21:45Z
2019-11-07T01:24:22Z,42.805,6.029,13.2961,4.59960,2469.9,2019-11-07T03:24:49Z
2019-11-07T01:27:25Z,42.805,6.029,13.2959,4.59956,2469.914,2019-11-07T03:27:52Z
2019-11-07T01:30:28Z,42.805,6.029,13.2971,4.60016,2469.947,2019-11-07T03:30:55Z
2019-11-07T01:33:31Z,42.805,6.029,13.2986,4.60040,2469.914,2019-11-07T03:33:58Z
2019-11-07T01:36:34Z,42.805,6.029,13.2982,4.60020,2469.9,2019-11-07T03:37:01Z
2019-11-07T01:39:38Z,42.805,6.029,13.2985,4.60015,2469.914,2019-11-07T03:40:05Z
2019-11-07T01:42:41Z,42.805,6.029,13.3038,4.60046,2469.914,2019-11-07T03:43:08Z
2019-11-07T01:45:44Z,42.805,6.029,13.2979,4.60011,2469.876,2019-11-07T03:46:11Z
2019-11-07T01:48:47Z,42.805,6.029,13.2992,4.60025,2469.9,2019-11-07T03:49:14Z
2019-11-07T01:51:51Z,42.805,6.029,13.3027,4.59989,2469.923,2019-11-07T03:52:18Z
2019-11-07T01:54:54Z,42.805,6.029,13.3006,4.60009,2469.9,2019-11-07T03:55:21Z
2019-11-07T01:57:57Z,42.805,6.029,13.2973,4.59975,2469.923,2019-11-07T03:58:24Z
2019-11-07T02:01:00Z,42.805,6.029,13.3004,4.59994,2469.876,2019-11-07T04:01:27Z
2019-11-07T02:04:03Z,42.805,6.029,13.2998,4.59996,2469.923,2019-11-07T04:04:30Z
2019-11-07T02:07:06Z,42.805,6.029,13.2999,4.60033,2469.937,2019-11-07T04:07:34Z
2019-11-07T02:10:10Z,42.805,6.029,13.2985,4.60053,2469.923,2019-11-07T04:10:37Z
2019-11-07T02:13:13Z,42.805,6.029,13.2990,4.60033,2469.947,2019-11-07T04:13:40Z
2019-11-07T02:16:16Z,42.805,6.029,13.3003,4.59986,2469.923,2019-11-07T04:16:43Z
2019-11-07T02:19:19Z,42.805,6.029,13.3002,4.59982,2469.947,2019-11-07T04:19:47Z
2019-11-07T02:22:23Z,42.805,6.029,13.2990,4.59979,2469.909,2019-11-07T04:22:50Z
2019-11-07T02:25:26Z,42.805,6.029,13.2990,4.60003,2469.937,2019-11-07T04:25:53Z
2019-11-07T02:28:29Z,42.805,6.029,13.2993,4.60022,2469.937,2019-11-07T04:28:56Z
2019-11-07T02:31:32Z,42.805,6.029,13.2992,4.60010,2469.923,2019-11-07T04:31:59Z
2019-11-07T02:34:35Z,42.805,6.029,13.2991,4.60046,2469.96,2019-11-07T04:35:03Z
2019-11-07T02:37:39Z,42.805,6.029,13.2997,4.60005,2469.937,2019-11-07T04:38:06Z
2019-11-07T02:40:42Z,42.805,6.029,13.3006,4.60004,2469.96,2019-11-07T04:41:09Z
2019-11-07T02:43:45Z,42.805,6.029,13.3010,4.60048,2469.937,2019-11-07T04:44:12Z
2019-11-07T02:46:48Z,42.805,6.029,13.3009,4.60032,2469.937,2019-11-07T04:47:15Z
2019-11-07T02:49:52Z,42.805,6.029,13.3006,4.59994,2469.937,2019-11-07T04:50:19Z
2019-11-07T02:52:55Z,42.805,6.029,13.3016,4.59991,2469.923,2019-11-07T04:53:22Z
2019-11-07T02:55:58Z,42.805,6.029,13.3000,4.59986,2469.947,2019-11-07T04:56:25Z
2019-11-07T02:59:01Z,42.805,6.029,13.3024,4.59973,2469.97,2019-11-07T04:59:28Z
2019-11-07T03:02:04Z,42.805,6.029,13.3030,4.59973,2469.923,2019-11-07T05:02:32Z
2019-11-07T03:05:08Z,42.805,6.029,13.3026,4.59971,2469.937,2019-11-07T05:05:35Z
2019-11-07T03:08:11Z,42.805,6.029,13.3023,4.59966,2469.923,2019-11-07T05:08:38Z
2019-11-07T03:11:14Z,42.805,6.029,13.3024,4.59983,2469.937,2019-11-07T05:11:41Z
2019-11-07T03:14:17Z,42.805,6.029,13.3022,4.59968,2469.876,2019-11-07T05:14:44Z
2019-11-07T03:17:20Z,42.805,6.029,13.3015,4.59973,2469.984,2019-11-07T05:17:48Z
2019-11-07T03:20:24Z,42.805,6.029,13.3017,4.59968,2469.937,2019-11-07T05:20:51Z
2019-11-07T03:23:27Z,42.805,6.029,13.2986,4.59970,2469.96,2019-11-07T05:23:54Z
2019-11-07T03:26:30Z,42.805,6.029,13.2979,4.59971,2469.923,2019-11-07T05:26:57Z
2019-11-07T03:29:33Z,42.805,6.029,13.2979,4.59973,2469.97,2019-11-07T05:30:00Z
2019-11-07T03:32:37Z,42.805,6.029,13.3001,4.59976,2469.96,2019-11-07T05:33:04Z
2019-11-07T03:35:40Z,42.805,6.029,13.2995,4.59981,2469.937,2019-11-07T05:36:07Z
2019-11-07T03:38:43Z,42.805,6.029,13.2996,4.59968,2469.96,2019-11-07T05:39:10Z
2019-11-07T03:41:46Z,42.805,6.029,13.3000,4.59967,2469.947,2019-11-07T05:42:13Z
2019-11-07T03:44:49Z,42.805,6.029,13.2976,4.59964,2469.937,2019-11-07T05:45:16Z
2019-11-07T03:47:53Z,42.805,6.029,13.2956,4.59991,2469.947,2019-11-07T05:48:20Z
2019-11-07T03:50:56Z,42.805,6.029,13.2957,4.60017,2469.937,2019-11-07T05:51:23Z
2019-11-07T03:53:59Z,42.805,6.029,13.2958,4.60027,2469.947,2019-11-07T05:54:26Z
2019-11-07T03:57:02Z,42.805,6.029,13.2956,4.60003,2469.9,2019-11-07T05:57:29Z
2019-11-07T04:00:06Z,42.805,6.029,13.2952,4.59970,2469.947,2019-11-07T06:00:33Z
2019-11-07T04:03:09Z,42.805,6.029,13.2954,4.59998,2469.947,2019-11-07T06:03:36Z
2019-11-07T04:06:12Z,42.805,6.029,13.2954,4.59981,2469.947,2019-11-07T06:06:39Z
2019-11-07T04:09:15Z,42.805,6.029,13.2952,4.59981,2469.97,2019-11-07T06:09:42Z
2019-11-07T04:12:18Z,42.805,6.029,13.2958,4.59978,2469.96,2019-11-07T06:12:46Z
2019-11-07T04:15:22Z,42.805,6.029,13.2957,4.59973,2469.947,2019-11-07T06:15:49Z
2019-11-07T04:18:25Z,42.805,6.029,13.2955,4.59971,2469.947,2019-11-07T06:18:52Z
2019-11-07T04:21:28Z,42.805,6.029,13.2956,4.59972,2469.923,2019-11-07T06:21:55Z
2019-11-07T04:24:31Z,42.805,6.029,13.2957,4.59971,2469.97,2019-11-07T06:24:58Z
2019-11-07T04:27:34Z,42.805,6.029,13.2957,4.59966,2469.947,2019-11-07T06:28:02Z
2019-11-07T04:30:38Z,42.805,6.029,13.2953,4.59965,2469.937,2019-11-07T06:31:05Z
2019-11-07T04:33:41Z,42.805,6.029,13.2953,4.59964,2469.947,2019-11-07T06:34:08Z
2019-11-07T04:36:44Z,42.805,6.029,13.2958,4.59968,2469.937,2019-11-07T06:37:11Z
2019-11-07T04:39:47Z,42.805,6.029,13.2956,4.59963,2469.947,2019-11-07T06:40:14Z
2019-11-07T04:42:51Z,42.805,6.029,13.2957,4.59973,2469.947,2019-11-07T06:43:18Z
2019-11-07T04:45:54Z,42.805,6.029,13.2955,4.59964,2469.923,2019-11-07T06:46:21Z
2019-11-07T04:48:57Z,42.805,6.029,13.2957,4.59969,2469.96,2019-11-07T06:49:24Z
2019-11-07T04:52:00Z,42.805,6.029,13.2957,4.59977,2469.97,2019-11-07T06:52:27Z
2019-11-07T04:55:03Z,42.805,6.029,13.2957,4.59973,2469.984,2019-11-07T06:55:31Z
2019-11-07T04:58:07Z,42.805,6.029,13.2957,4.59960,2469.923,2019-11-07T06:58:34Z
2019-11-07T05:01:10Z,42.805,6.029,13.2957,4.59961,2469.933,2019-11-07T07:01:37Z
2019-11-07T05:04:13Z,42.805,6.029,13.2957,4.59961,2469.96,2019-11-07T07:04:40Z
2019-11-07T05:07:16Z,42.805,6.029,13.2956,4.59964,2469.984,2019-11-07T07:07:43Z
2019-11-07T05:10:20Z,42.805,6.029,13.2957,4.59964,2469.96,2019-11-07T07:10:47Z
2019-11-07T05:13:23Z,42.805,6.029,13.2956,4.59958,2469.937,2019-11-07T07:13:50Z
2019-11-07T05:16:26Z,42.805,6.029,13.2957,4.59963,2469.923,2019-11-07T07:16:53Z
2019-11-07T05:19:29Z,42.805,6.029,13.2957,4.59959,2469.947,2019-11-07T07:19:56Z
2019-11-07T05:22:32Z,42.805,6.029,13.2956,4.59959,2469.947,2019-11-07T07:22:59Z
2019-11-07T05:25:36Z,42.805,6.029,13.2953,4.59958,2469.984,2019-11-07T07:26:03Z
2019-11-07T05:28:39Z,42.805,6.029,13.2957,4.59959,2469.96,2019-11-07T07:29:06Z
2019-11-07T05:31:42Z,42.805,6.029,13.2957,4.59958,2469.96,2019-11-07T07:32:09Z
2019-11-07T05:34:45Z,42.805,6.029,13.2957,4.59962,2469.96,2019-11-07T07:35:12Z
2019-11-07T05:37:48Z,42.805,6.029,13.2960,4.59959,2469.923,2019-11-07T07:38:16Z
2019-11-07T05:40:52Z,42.805,6.029,13.2958,4.59961,2469.96,2019-11-07T07:41:19Z
2019-11-07T05:43:55Z,42.805,6.029,13.2952,4.59958,2469.947,2019-11-07T07:44:22Z
2019-11-07T05:46:58Z,42.805,6.029,13.2957,4.59958,2469.937,2019-11-07T07:47:25Z
2019-11-07T05:50:01Z,42.805,6.029,13.2957,4.59960,2469.9,2019-11-07T07:50:28Z
2019-11-07T05:53:05Z,42.805,6.029,13.2955,4.59958,2469.923,2019-11-07T07:53:32Z
2019-11-07T05:56:08Z,42.805,6.029,13.2956,4.59960,2469.923,2019-11-07T07:56:35Z
2019-11-07T05:59:11Z,42.805,6.029,13.2956,4.59958,2469.937,2019-11-07T07:59:38Z
2019-11-07T06:02:14Z,42.805,6.029,13.2954,4.59958,2469.914,2019-11-07T08:02:41Z
2019-11-07T06:05:18Z,42.805,6.029,13.2958,4.59958,2469.923,2019-11-07T08:05:45Z
2019-11-07T06:08:21Z,42.805,6.029,13.2957,4.59958,2469.984,2019-11-07T08:08:48Z
2019-11-07T06:11:24Z,42.805,6.029,13.2956,4.59958,2469.947,2019-11-07T08:11:51Z
2019-11-07T06:14:27Z,42.805,6.029,13.2957,4.59958,2469.937,2019-11-07T08:14:54Z
2019-11-07T06:17:30Z,42.805,6.029,13.2956,4.59958,2469.914,2019-11-07T08:17:57Z
2019-11-07T06:20:33Z,42.805,6.029,13.2953,4.59958,2469.923,2019-11-07T08:21:01Z
2019-11-07T06:23:37Z,42.805,6.029,13.2954,4.59958,2469.947,2019-11-07T08:24:04Z
2019-11-07T06:26:40Z,42.805,6.029,13.2957,4.59958,2469.923,2019-11-07T08:27:07Z
2019-11-07T06:29:43Z,42.805,6.029,13.2957,4.59960,2469.886,2019-11-07T08:30:10Z
2019-11-07T06:32:46Z,42.805,6.029,13.2958,4.59957,2469.937,2019-11-07T08:33:13Z
2019-11-07T06:35:49Z,42.805,6.029,13.2955,4.59958,2469.96,2019-11-07T08:36:17Z
2019-11-07T06:38:53Z,42.805,6.029,13.2958,4.59956,2469.96,2019-11-07T08:39:20Z
2019-11-07T06:41:56Z,42.805,6.029,13.2955,4.59958,2469.923,2019-11-07T08:42:23Z
2019-11-07T06:44:59Z,42.805,6.029,13.2958,4.59958,2469.947,2019-11-07T08:45:26Z
2019-11-07T06:48:02Z,42.805,6.029,13.2954,4.59956,2469.96,2019-11-07T08:48:30Z
2019-11-07T06:51:06Z,42.805,6.029,13.2956,4.59956,2469.984,2019-11-07T08:51:33Z
2019-11-07T06:54:09Z,42.805,6.029,13.2956,4.59957,2469.947,2019-11-07T08:54:36Z
2019-11-07T06:57:12Z,42.805,6.029,13.2955,4.59957,2469.96,2019-11-07T08:57:39Z
2019-11-07T07:00:15Z,42.805,6.029,13.2953,4.59957,2469.937,2019-11-07T09:00:42Z
2019-11-07T07:03:18Z,42.805,6.029,13.2954,4.59956,2469.923,2019-11-07T09:03:46Z
2019-11-07T07:06:22Z,42.805,6.029,13.2956,4.59956,2469.914,2019-11-07T09:06:49Z
2019-11-07T07:09:25Z,42.805,6.029,13.2958,4.59956,2469.984,2019-11-07T09:09:52Z
2019-11-07T07:12:28Z,42.805,6.029,13.2957,4.59956,2469.947,2019-11-07T09:12:55Z
2019-11-07T07:15:31Z,42.805,6.029,13.2957,4.59956,2469.923,2019-11-07T09:15:58Z
2019-11-07T07:18:34Z,42.805,6.029,13.2958,4.59956,2469.937,2019-11-07T09:19:01Z
2019-11-07T07:21:38Z,42.805,6.029,13.2954,4.59954,2469.947,2019-11-07T09:22:05Z
2019-11-07T07:24:41Z,42.805,6.029,13.2957,4.59957,2469.947,2019-11-07T09:25:08Z
2019-11-07T07:27:44Z,42.805,6.029,13.2957,4.59955,2469.937,2019-11-07T09:28:11Z
2019-11-07T07:30:47Z,42.805,6.029,13.2952,4.59956,2469.947,2019-11-07T09:31:14Z
2019-11-07T07:33:50Z,42.805,6.029,13.2954,4.59956,2469.914,2019-11-07T09:34:18Z
2019-11-07T07:36:54Z,42.805,6.029,13.2957,4.59957,2469.9,2019-11-07T09:37:21Z
2019-11-07T07:39:57Z,42.805,6.029,13.2957,4.59959,2469.923,2019-11-07T09:40:24Z
2019-11-07T07:43:00Z,42.805,6.029,13.2955,4.59955,2469.914,2019-11-07T09:43:27Z
2019-11-07T07:46:03Z,42.805,6.029,13.2958,4.59954,2469.9,2019-11-07T09:46:30Z
2019-11-07T07:49:06Z,42.805,6.029,13.2959,4.59956,2469.923,2019-11-07T09:49:34Z
2019-11-07T07:52:10Z,42.805,6.029,13.2957,4.59964,2469.923,2019-11-07T09:52:37Z
2019-11-07T07:55:13Z,42.805,6.029,13.2958,4.59955,2469.9,2019-11-07T09:55:40Z
2019-11-07T07:58:16Z,42.805,6.029,13.2952,4.59958,2469.947,2019-11-07T09:58:43Z
2019-11-07T08:01:19Z,42.805,6.029,13.2958,4.59955,2469.9,2019-11-07T10:01:46Z
2019-11-07T08:04:22Z,42.805,6.029,13.2958,4.59956,2469.947,2019-11-07T10:04:50Z
2019-11-07T08:07:26Z,42.805,6.029,13.2954,4.59956,2469.914,2019-11-07T10:07:53Z
2019-11-07T08:10:29Z,42.805,6.029,13.2957,4.59956,2469.947,2019-11-07T10:10:56Z
2019-11-07T08:13:32Z,42.805,6.029,13.2958,4.59955,2469.923,2019-11-07T10:13:59Z
2019-11-07T08:16:35Z,42.805,6.029,13.2959,4.59955,2469.937,2019-11-07T10:17:02Z
2019-11-07T08:19:38Z,42.805,6.029,13.2957,4.59958,2469.96,2019-11-07T10:20:06Z
2019-11-07T08:22:42Z,42.805,6.029,13.2956,4.59956,2469.9,2019-11-07T10:23:09Z
2019-11-07T08:25:45Z,42.805,6.029,13.2957,4.59956,2469.914,2019-11-07T10:26:12Z
2019-11-07T08:28:48Z,42.805,6.029,13.2956,4.59956,2469.923,2019-11-07T10:29:15Z
2019-11-07T08:31:52Z,42.805,6.029,13.2959,4.59955,2469.937,2019-11-07T10:32:19Z
2019-11-07T08:34:55Z,42.805,6.029,13.2955,4.59956,2469.923,2019-11-07T10:35:22Z
2019-11-07T08:37:58Z,42.805,6.029,13.2958,4.59956,2469.9,2019-11-07T10:38:25Z
2019-11-07T08:41:01Z,42.805,6.029,13.2957,4.59956,2469.89,2019-11-07T10:41:29Z
2019-11-07T08:44:05Z,42.805,6.029,13.2957,4.59955,2469.9,2019-11-07T10:44:32Z
2019-11-07T08:47:08Z,42.805,6.029,13.2957,4.59958,2469.937,2019-11-07T10:47:35Z
2019-11-07T08:50:11Z,42.805,6.029,13.2958,4.59956,2469.89,2019-11-07T10:50:38Z
2019-11-07T08:53:14Z,42.805,6.029,13.2957,4.59956,2469.9,2019-11-07T10:53:41Z
2019-11-07T08:56:17Z,42.805,6.029,13.2957,4.59956,2469.876,2019-11-07T10:56:44Z
2019-11-07T08:59:21Z,42.805,6.029,13.2960,4.59956,2469.9,2019-11-07T10:59:48Z
2019-11-07T09:02:24Z,42.805,6.029,13.2953,4.59958,2469.9,2019-11-07T11:02:51Z
2019-11-07T09:05:27Z,42.805,6.029,13.2955,4.59955,2469.923,2019-11-07T11:05:54Z
2019-11-07T09:08:30Z,42.805,6.029,13.2954,4.59956,2469.9,2019-11-07T11:08:57Z
2019-11-07T09:11:33Z,42.805,6.029,13.2959,4.59955,2469.9,2019-11-07T11:12:00Z
2019-11-07T09:14:37Z,42.805,6.029,13.2957,4.59956,2469.9,2019-11-07T11:15:04Z
2019-11-07T09:17:40Z,42.805,6.029,13.2958,4.59954,2469.89,2019-11-07T11:18:07Z
2019-11-07T09:20:43Z,42.805,6.029,13.2958,4.59956,2469.9,2019-11-07T11:21:10Z
2019-11-07T09:23:46Z,42.805,6.029,13.2958,4.59955,2469.914,2019-11-07T11:24:13Z
2019-11-07T09:26:49Z,42.805,6.029,13.2958,4.59955,2469.9,2019-11-07T11:27:16Z
2019-11-07T09:29:52Z,42.805,6.029,13.2961,4.59955,2469.923,2019-11-07T11:30:20Z
2019-11-07T09:32:56Z,42.805,6.029,13.2958,4.59956,2469.923,2019-11-07T11:33:23Z
2019-11-07T09:35:59Z,42.805,6.029,13.2954,4.59957,2469.9,2019-11-07T11:36:26Z
2019-11-07T09:39:02Z,42.805,6.029,13.2957,4.59955,2469.923,2019-11-07T11:39:29Z
2019-11-07T09:42:05Z,42.805,6.029,13.2958,4.59956,2469.9,2019-11-07T11:42:32Z
2019-11-07T09:45:08Z,42.805,6.029,13.2957,4.59956,2469.9,2019-11-07T11:45:36Z
2019-11-07T09:48:12Z,42.805,6.029,13.2958,4.59956,2469.9,2019-11-07T11:48:39Z
2019-11-07T09:51:15Z,42.805,6.029,13.2953,4.59956,2469.937,2019-11-07T11:51:42Z
2019-11-07T09:54:18Z,42.805,6.029,13.2960,4.59956,2469.947,2019-11-07T11:54:45Z
2019-11-07T09:57:21Z,42.805,6.029,13.2957,4.59956,2469.876,2019-11-07T11:57:48Z
2019-11-07T10:00:24Z,42.805,6.029,13.2957,4.59956,2469.914,2019-11-07T12:00:52Z
2019-11-07T10:03:28Z,42.805,6.029,13.2958,4.59955,2469.937,2019-11-07T12:03:55Z
2019-11-07T10:06:31Z,42.805,6.029,13.2957,4.59956,2469.937,2019-11-07T12:06:58Z
2019-11-07T10:09:34Z,42.805,6.029,13.2959,4.59954,2469.923,2019-11-07T12:10:01Z
2019-11-07T10:12:37Z,42.805,6.029,13.2957,4.59954,2469.914,2019-11-07T12:13:04Z
2019-11-07T10:15:40Z,42.805,6.029,13.2958,4.59954,2469.9,2019-11-07T12:16:08Z
2019-11-07T10:18:44Z,42.805,6.029,13.2958,4.59956,2469.914,2019-11-07T12:19:11Z
2019-11-07T10:21:47Z,42.805,6.029,13.2959,4.59956,2469.923,2019-11-07T12:22:14Z
2019-11-07T10:24:50Z,42.805,6.029,13.2958,4.59956,2469.937,2019-11-07T12:25:17Z
2019-11-07T10:27:53Z,42.805,6.029,13.2958,4.59956,2469.947,2019-11-07T12:28:20Z
2019-11-07T10:30:57Z,42.805,6.029,13.2958,4.59955,2469.9,2019-11-07T12:31:24Z
2019-11-07T10:34:00Z,42.805,6.029,13.2958,4.59956,2469.9,2019-11-07T12:34:27Z
2019-11-07T10:37:03Z,42.805,6.029,13.2959,4.59954,2469.923,2019-11-07T12:37:30Z
2019-11-07T10:40:06Z,42.805,6.029,13.2958,4.59955,2469.9,2019-11-07T12:40:33Z
2019-11-07T10:43:09Z,42.805,6.029,13.2958,4.59956,2469.914,2019-11-07T12:43:37Z
2019-11-07T10:46:13Z,42.805,6.029,13.2958,4.59955,2469.914,2019-11-07T12:46:40Z
2019-11-07T10:49:16Z,42.805,6.029,13.2957,4.59955,2469.937,2019-11-07T12:49:43Z
2019-11-07T10:52:19Z,42.805,6.029,13.2955,4.59955,2469.876,2019-11-07T12:52:46Z
2019-11-07T10:55:22Z,42.805,6.029,13.2957,4.59956,2469.876,2019-11-07T12:55:49Z
2019-11-07T10:58:25Z,42.805,6.029,13.2958,4.59956,2469.937,2019-11-07T12:58:53Z
2019-11-07T11:01:29Z,42.805,6.029,13.2958,4.59956,2469.923,2019-11-07T13:01:56Z
2019-11-07T11:04:32Z,42.805,6.029,13.2955,4.59955,2469.9,2019-11-07T13:04:59Z
2019-11-07T11:07:35Z,42.805,6.029,13.2961,4.59955,2469.937,2019-11-07T13:08:02Z
2019-11-07T11:10:38Z,42.805,6.029,13.2959,4.59954,2469.937,2019-11-07T13:11:05Z
2019-11-07T11:13:41Z,42.805,6.029,13.2957,4.59955,2469.9,2019-11-07T13:14:09Z
2019-11-07T11:16:45Z,42.805,6.029,13.2956,4.59954,2469.923,2019-11-07T13:17:12Z
2019-11-07T11:19:48Z,42.805,6.029,13.2958,4.59955,2469.923,2019-11-07T13:20:15Z
2019-11-07T11:22:51Z,42.805,6.029,13.2955,4.59954,2469.923,2019-11-07T13:23:18Z
2019-11-07T11:25:54Z,42.805,6.029,13.2959,4.59955,2469.9,2019-11-07T13:26:21Z
2019-11-07T11:28:57Z,42.805,6.029,13.2957,4.59954,2469.947,2019-11-07T13:29:25Z
2019-11-07T11:32:01Z,42.805,6.029,13.2954,4.59954,2469.914,2019-11-07T13:32:28Z
2019-11-07T11:35:04Z,42.805,6.029,13.2955,4.59954,2469.9,2019-11-07T13:35:31Z
2019-11-07T11:38:07Z,42.805,6.029,13.2959,4.59954,2469.923,2019-11-07T13:38:34Z
2019-11-07T11:41:10Z,42.805,6.029,13.2956,4.59954,2469.923,2019-11-07T13:41:37Z
2019-11-07T11:44:14Z,42.805,6.029,13.2958,4.59954,2469.89,2019-11-07T13:44:41Z
2019-11-07T11:47:17Z,42.805,6.029,13.2957,4.59955,2469.923,2019-11-07T13:47:44Z
2019-11-07T11:50:20Z,42.805,6.029,13.2962,4.59954,2469.923,2019-11-07T13:50:47Z
2019-11-07T11:53:23Z,42.805,6.029,13.2960,4.59954,2469.923,2019-11-07T13:53:51Z
2019-11-07T11:56:27Z,42.805,6.029,13.2958,4.59955,2469.96,2019-11-07T13:56:54Z
2019-11-07T11:59:30Z,42.805,6.029,13.2957,4.59955,2469.923,2019-11-07T13:59:57Z
2019-11-07T12:02:33Z,42.805,6.029,13.2955,4.59954,2469.923,2019-11-07T14:03:00Z
2019-11-07T12:05:36Z,42.805,6.029,13.2958,4.59954,2469.947,2019-11-07T14:06:03Z
2019-11-07T12:08:40Z,42.805,6.029,13.2958,4.59955,2469.937,2019-11-07T14:09:07Z
2019-11-07T12:11:43Z,42.805,6.029,13.2958,4.59955,2469.937,2019-11-07T14:12:10Z
2019-11-07T12:14:46Z,42.805,6.029,13.2954,4.59954,2469.937,2019-11-07T14:15:13Z
2019-11-07T12:17:49Z,42.805,6.029,13.2955,4.59954,2469.96,2019-11-07T14:18:16Z
2019-11-07T12:20:52Z,42.805,6.029,13.2955,4.59954,2469.923,2019-11-07T14:21:20Z
2019-11-07T12:23:56Z,42.805,6.029,13.2953,4.59955,2469.96,2019-11-07T14:24:23Z
2019-11-07T12:26:59Z,42.805,6.029,13.2955,4.59954,2469.937,2019-11-07T14:27:26Z
2019-11-07T12:30:02Z,42.805,6.029,13.2953,4.59954,2469.947,2019-11-07T14:30:29Z
2019-11-07T12:33:05Z,42.805,6.029,13.2961,4.59954,2469.96,2019-11-07T14:33:33Z
2019-11-07T12:36:09Z,42.805,6.029,13.2958,4.59954,2469.947,2019-11-07T14:36:36Z
2019-11-07T12:39:12Z,42.805,6.029,13.2956,4.59955,2469.937,2019-11-07T14:39:39Z
2019-11-07T12:42:15Z,42.805,6.029,13.2954,4.59955,2469.937,2019-11-07T14:42:42Z
2019-11-07T12:45:18Z,42.805,6.029,13.2956,4.59955,2469.97,2019-11-07T14:45:45Z
2019-11-07T12:48:21Z,42.805,6.029,13.2962,4.59954,2469.97,2019-11-07T14:48:49Z
2019-11-07T12:51:25Z,42.805,6.029,13.2956,4.59954,2469.923,2019-11-07T14:51:52Z
2019-11-07T12:54:28Z,42.805,6.029,13.2954,4.59954,2469.923,2019-11-07T14:54:55Z
2019-11-07T12:57:32Z,42.805,6.029,13.2957,4.59955,2469.947,2019-11-07T14:57:59Z
2019-11-07T13:00:35Z,42.805,6.029,13.2957,4.59954,2469.984,2019-11-07T15:01:02Z
2019-11-07T13:03:38Z,42.805,6.029,13.2956,4.59954,2469.923,2019-11-07T15:04:05Z
2019-11-07T13:06:41Z,42.805,6.029,13.2956,4.59956,2469.947,2019-11-07T15:07:08Z
2019-11-07T13:09:44Z,42.805,6.029,13.2958,4.59954,2469.97,2019-11-07T15:10:12Z
2019-11-07T13:12:48Z,42.805,6.029,13.2958,4.59954,2469.97,2019-11-07T15:13:15Z
2019-11-07T13:15:51Z,42.805,6.029,13.2958,4.59954,2469.96,2019-11-07T15:16:18Z
2019-11-07T13:18:54Z,42.805,6.029,13.2954,4.59954,2469.947,2019-11-07T15:19:21Z
2019-11-07T13:21:57Z,42.805,6.029,13.2957,4.59955,2469.97,2019-11-07T15:22:25Z
2019-11-07T13:25:01Z,42.805,6.029,13.2957,4.59954,2469.97,2019-11-07T15:25:28Z
2019-11-07T13:28:04Z,42.805,6.029,13.2957,4.59954,2469.96,2019-11-07T15:28:31Z
2019-11-07T13:31:07Z,42.805,6.029,13.2953,4.59954,2469.984,2019-11-07T15:31:34Z
2019-11-07T13:34:10Z,42.805,6.029,13.2963,4.59954,2469.984,2019-11-07T15:34:37Z
2019-11-07T13:37:13Z,42.805,6.029,13.2957,4.59954,2470.007,2019-11-07T15:37:40Z
2019-11-07T13:40:17Z,42.805,6.029,13.2957,4.59955,2469.97,2019-11-07T15:40:44Z
2019-11-07T13:43:20Z,42.805,6.029,13.2958,4.59955,2469.979,2019-11-07T15:43:47Z
2019-11-07T13:46:23Z,42.805,6.029,13.2957,4.59955,2469.993,2019-11-07T15:46:50Z
2019-11-07T13:49:26Z,42.805,6.029,13.2952,4.59955,2469.993,2019-11-07T15:49:53Z
2019-11-07T13:52:29Z,42.805,6.029,13.2955,4.59954,2469.984,2019-11-07T15:52:57Z
2019-11-07T13:55:33Z,42.805,6.029,13.2957,4.59954,2469.993,2019-11-07T15:56:00Z
2019-11-07T13:58:36Z,42.805,6.029,13.2953,4.59955,2469.97,2019-11-07T15:59:03Z
2019-11-07T14:01:39Z,42.805,6.029,13.2955,4.59955,2469.97,2019-11-07T16:02:06Z
2019-11-07T14:04:42Z,42.805,6.029,13.2958,4.59955,2470.007,2019-11-07T16:05:09Z
2019-11-07T14:07:45Z,42.805,6.029,13.2959,4.59956,2469.993,2019-11-07T16:08:13Z
2019-11-07T14:10:49Z,42.805,6.029,13.2956,4.59956,2470.017,2019-11-07T16:11:16Z
2019-11-07T14:13:52Z,42.805,6.029,13.2953,4.59955,2469.993,2019-11-07T16:14:19Z
2019-11-07T14:16:55Z,42.805,6.029,13.2958,4.59956,2469.97,2019-11-07T16:17:22Z
2019-11-07T14:19:58Z,42.805,6.029,13.2958,4.59958,2469.993,2019-11-07T16:20:25Z
2019-11-07T14:23:01Z,42.805,6.029,13.2955,4.59956,2470.017,2019-11-07T16:23:29Z
2019-11-07T14:26:05Z,42.805,6.029,13.2957,4.59956,2470.04,2019-11-07T16:26:32Z
2019-11-07T14:29:08Z,42.805,6.029,13.2959,4.59956,2469.97,2019-11-07T16:29:35Z
2019-11-07T14:32:11Z,42.805,6.029,13.2957,4.59955,2469.993,2019-11-07T16:32:38Z
2019-11-07T14:35:15Z,42.805,6.029,13.2957,4.59956,2470.03,2019-11-07T16:35:42Z
2019-11-07T14:38:18Z,42.805,6.029,13.2958,4.59956,2470.017,2019-11-07T16:38:45Z
2019-11-07T14:41:21Z,42.805,6.029,13.2957,4.59956,2469.979,2019-11-07T16:41:48Z
2019-11-07T14:44:24Z,42.805,6.029,13.2958,4.59956,2470.04,2019-11-07T16:44:51Z
2019-11-07T14:47:27Z,42.805,6.029,13.2957,4.59957,2470.03,2019-11-07T16:47:55Z
2019-11-07T14:50:31Z,42.805,6.029,13.2957,4.59956,2469.993,2019-11-07T16:50:58Z
2019-11-07T14:53:34Z,42.805,6.029,13.2953,4.59956,2470.04,2019-11-07T16:54:01Z
2019-11-07T14:56:38Z,42.805,6.029,13.2959,4.59956,2470.03,2019-11-07T16:57:05Z
2019-11-07T14:59:41Z,42.805,6.029,13.2957,4.59957,2470.007,2019-11-07T17:00:08Z
2019-11-07T15:02:44Z,42.805,6.029,13.2958,4.59956,2470.017,2019-11-07T17:03:11Z